This demonstration page uses our WeatherBlox Daily Observations layout. Learn more.

Left ArrowRight Arrow

Hourly Observations for June 14, 2021

Temp ( °F °C ) Dew Point ( °F °C ) Humidity (%) Winds ( mph kmh ) Pressure ( in mb ) Visibility ( mi km ) Precip ( " mm )
12:53 am 00:53 Clear 75 23.9 70 21.1 84 84 Calm 29.88 1012 10 16 0.00 0.00
1:53 am 01:53 Clear 72 22.2 70 21.1 94 94 Calm 29.88 1012 10 16 0.00 0.00
2:53 am 02:53 Clear 73 22.8 70 21.1 90 90 Calm 29.89 1012 10 16 0.00 0.00
3:53 am 03:53 Mostly Clear 72 22.2 69 20.6 91 91 Calm 29.88 1012 10 16 0.00 0.00
4:53 am 04:53 Clear 71 21.7 70 21.1 96 96 Calm 29.88 1012 10 16 0.00 0.00
5:53 am 05:53 Clear 71 21.7 69 20.6 94 94 Calm 29.88 1012 10 16 0.00 0.00
6:53 am 06:53 Sunny 71 21.7 69 20.6 94 94 Calm 29.89 1012 10 16 0.00 0.00
7:53 am 07:53 Sunny 73 22.8 71 21.7 94 94 Calm 29.91 1013 10 16 0.00 0.00
8:53 am 08:53 Sunny 78 25.6 70 21.1 76 76 S 3 6 29.91 1013 10 16 0.00 0.00
9:53 am 09:53 Sunny 82 27.8 69 20.6 65 65 SW 5 7 29.91 1013 10 16 0.00 0.00
10:53 am 10:53 Sunny 84 28.9 70 21.1 63 63 WSW 3 6 29.91 1013 10 16 0.00 0.00
11:53 am 11:53 Sunny 86 30 70 21.1 59 59 VRB 3 6 29.91 1013 10 16 0.00 0.00
12:53 pm 12:53 Mostly Sunny 89 31.7 70 21.1 53 53 W 3 6 29.90 1012 10 16 0.00 0.00
1:53 pm 13:53 Mostly Cloudy 90 32.2 71 21.7 54 54 W 7 11 29.88 1012 10 16 0.00 0.00
2:18 pm 14:18 Partly Cloudy with Thunderstorms 88 31.1 70 21.1 55 55 Calm 29.86 1011 10 16 0.00 0.00
2:50 pm 14:50 Partly Cloudy with Nearby Thunderstorms 90 32 72 22 55 55 VRB 3 6 29.83 1010 10 16 0.00 0.00
2:53 pm 14:53 Partly Cloudy with Nearby Thunderstorms 90 32.2 70 21.1 52 52 Calm 29.85 1011 10 16 0.00 0.00
3:25 pm 15:25 Mostly Cloudy 90 32.2 71 21.7 54 54 ESE 5 7 29.81 1010 10 16 0.00 0.00
3:53 pm 15:53 Cloudy 89 31.7 70 21.1 53 53 S 7 11 29.84 1011 10 16 0.00 0.00
4:53 pm 16:53 Mostly Sunny 90 32.2 69 20.6 50 50 WNW 7 11 29.85 1011 10 16 0.00 0.00
5:00 pm 17:00 Partly Cloudy with Nearby Thunderstorms 89 31.7 71 21.7 55 55 SW 12 19 29.82 1010 10 16 0.00 0.00
5:53 pm 17:53 Sunny 84 28.9 71 21.7 65 65 SW 6 9 29.85 1011 10 16 0.00 0.00
6:53 pm 18:53 Sunny 86 30 73 22.8 65 65 SSW 9 15 29.83 1010 10 16 0.00 0.00
7:53 pm 19:53 Sunny 84 28.9 73 22.8 70 70 SW 8 13 29.83 1010 10 16 0.00 0.00
8:53 pm 20:53 Clear 81 27.2 73 22.8 77 77 SW 5 7 29.85 1011 10 16 0.00 0.00
9:53 pm 21:53 Clear 78 25.6 72 22.2 82 82 SW 6 9 29.87 1012 10 16 0.00 0.00
10:53 pm 22:53 Clear 77 25 72 22.2 85 85 SW 5 7 29.88 1012 10 16 0.00 0.00
11:53 pm 23:53 Clear 76 24.4 72 22.2 88 88 Calm 29.89 1012 10 16 0.00 0.00

Powered by AerisWeather